Regional Weather Roundup
Issued by NWS

Home | Current Version | Previous Version | Text Only | Print | Product List | Glossary Off
Versions: 1 2 3 4 5 6 7 8 9 10 11 12 13 14 15 16 17 18 19 20 21 22 23 24 25 26 27

000
ASUS45 KPSR 091110
RWRAZ

ARIZONA HOURLY REGIONAL WEATHER ROUNDUP
NATIONAL WEATHER SERVICE PHOENIX AZ
400 AM MST FRI DEC 09 2016

NOTE: FAIR INDICATES FEW OR NO CLOUDS BELOW 12,000 FEET WITH NO
SIGNIFICANT WEATHER AND/OR OBSTRUCTIONS TO VISIBILITY.

AZZ001>003-036-091200-
NORTHWEST ARIZONA

CITY           SKY/WX    TMP DP  RH WIND       PRES   REMARKS
BULLHEAD CITY  MOCLDY    52  16  24 CALM      30.27R
KINGMAN        CLOUDY    44  19  36 NW3       30.27S
$$

AZZ004>008-015-016-018-091200-
NORTH CENTRAL ARIZONA

CITY           SKY/WX    TMP DP  RH WIND       PRES   REMARKS
GRAND CANYON   CLOUDY    26  24  92 CALM      30.32R
WILLIAMS       CLEAR     28  27  93 SE8       30.31R WCI  20
PRESCOTT       PTCLDY    31  28  89 SW3       30.29S
FLAGSTAFF      CLEAR     23  22  96 CALM      30.31R
PAYSON         CLEAR     37  30  75 CALM      30.33S
PAGE           CLEAR     30  12  47 CALM      30.30R
$$

AZZ009>014-017-091200-
NORTHEAST ARIZONA

CITY           SKY/WX    TMP DP  RH WIND       PRES   REMARKS
WINSLOW        CLEAR     25  17  72 SE6       30.30R WCI  18
SAINT JOHNS    CLEAR     22  18  85 SW5       30.29S WCI  16
WINDOW ROCK    CLEAR     19  14  81 CALM      30.31R
SHOW LOW       CLEAR     32  25  74 S13       30.30F WCI  22
$$

AZZ023-091200-
GREATER PHOENIX AREA

CITY           SKY/WX    TMP DP  RH WIND       PRES   REMARKS
PHOENIX        CLEAR     50  40  68 E3        30.21S
BUCKEYE          N/A     45  37  76 NE3       30.23S
LUKE AFB       CLEAR     46  38  72 N6        30.20F
DEER VALLEY    CLEAR     48  38  68 CALM      30.21S
SCOTTSDALE     CLEAR     49  40  71 NE3       30.23R
MESA-GATEWAY   CLEAR     43  36  75 E7        30.23S
$$

AZZ027-028-091200-
SOUTHWEST MARICOPA COUNTY AND PINAL COUNTY

CITY           SKY/WX    TMP DP  RH WIND       PRES   REMARKS
CASA GRANDE    NOT AVBL
GILA BEND      FAIR      44  33  64 SE5       30.20F
$$

AZZ503-504-507>509-091200-
SOUTHEAST ARIZONA

CITY           SKY/WX    TMP DP  RH WIND       PRES   REMARKS
TUCSON         CLEAR     43  32  65 SE8       30.24S
DAVIS-MONTHAN  CLEAR     41  31  67 S8        30.22S
NOGALES        CLEAR     35  27  72 CALM      30.24S
SIERRA VISTA   CLEAR     38  30  73 W1        30.27F
DOUGLAS        CLEAR     31  28  89 NE5       30.28F WCI  26
SAFFORD        CLEAR     41  31  67 SE12      30.33R
$$

AZZ020-021-025-026-031-091200-
SOUTHWEST ARIZONA

CITY           SKY/WX    TMP DP  RH WIND       PRES   REMARKS
YUMA           PTCLDY    51  20  29 NE6       30.20F
$$

CAZ031-033-041-043-047-048-061-091200-
SOUTHERN CALIFORNIA

CITY           SKY/WX    TMP DP  RH WIND       PRES   REMARKS
DOWNTOWN L.A.  CLEAR     52  50  93 CALM      30.26S
L.A. AIRPORT   MOCLDY    54  52  93 E3        30.27R
SAN DIEGO      PTCLDY    53  49  86 CALM      30.28S
BURBANK        CLEAR     50  44  80 CALM      30.25F
ONTARIO        PTCLDY    47  42  83 CALM      30.26S
RIVERSIDE      CLEAR     47  43  86 CALM      30.27R
PALM SPRINGS   CLEAR     50  32  50 NW5       30.24R
EL CENTRO NAS  CLEAR     45  21  38 SW6       30.22F
IMPERIAL       CLEAR     45  26  47 W3        30.21S
BLYTHE         PTCLDY    45  11  25 W3        30.23S
NEEDLES        CLOUDY    54  13  19 NW6       30.26S
$$

NVZ020-UTZ003-091200-
SOUTHERN NEVADA-UTAH

CITY           SKY/WX    TMP DP  RH WIND       PRES   REMARKS
LAS VEGAS      CLOUDY    47  13  25 CALM      30.28S
SALT LAKE CITY CLOUDY    30  25  81 SE8       30.17F WCI  22
$$

NMZ009-TXZ055-091200-
NEW MEXICO-WEST TEXAS

CITY           SKY/WX    TMP DP  RH WIND       PRES   REMARKS
ALBUQUERQUE    CLOUDY    26  18  71 N3        30.35F
EL PASO        CLOUDY    32  24  72 CALM      30.41F
$$


........................KEY........................
SKY/WX - SKY CONDITION/WEATHER
TMP    - TEMPERATURE IN FAHRENHEIT
DP     - DEW POINT IN FAHRENHEIT
RH     - RELATIVE HUMIDITY IN PERCENT
WIND   - DIRECTION AND SPEED IN MILES PER HOUR (MPH)
VRB    - VARIABLE WIND DIRECTION
PRES   - MEAN SEA LEVEL PRESSURE IN INCHES OF MERCURY
         F - FALLING PRESSURE   R - RISING PRESSURE
         S - STEADY PRESSURE
VSB    - VISIBILITY IN MILES
HX     - HEAT INDEX IN FAHRENHEIT
WCI    - WIND CHILL INDEX IN FAHRENHEIT
TC     - TEMPERATURE IN CELSIUS WHICH IS ALSO KNOWN AS
         TEMPERATURE IN CENTIGRADE
AFB    - AIR FORCE BASE
         LUKE AFB IS LUKE AIR FORCE BASE
         DAVIS-MONTHAN IS DAVIS-MONTHAN AIR FORCE BASE
NAS    - NAVAL AIR STATION
         EL CENTRO NAS IS EL CENTRO NAVAL AIR STATION
N/A    - NOT AVAILABLE





USA.gov is the U.S. government's official web portal to all federal, state and local government web resources and services.